Time,TemperatureF,DewpointF,PressureIn,WindDirection,WindDirectionDegrees,WindSpeedMPH,WindSpeedGustMPH,Humidity,HourlyPrecipIn,Conditions,Clouds,dailyrainin,SoftwareType,DateUTC
2015-07-30 00:02:00,62.1,15.4,0.00,ENE,72,0.0,0.0,16,-99.99,,---,-99.99,VWS V14.01,2015-07-30 07:02:00,
2015-07-30 00:07:00,62.2,15.5,0.00,ENE,72,0.0,0.0,16,-99.99,,---,-99.99,VWS V14.01,2015-07-30 07:07:00,
2015-07-30 00:12:00,62.4,15.7,0.00,ENE,72,0.0,0.0,16,-99.99,,---,-99.99,VWS V14.01,2015-07-30 07:12:00,
2015-07-30 00:17:00,62.2,15.5,0.00,ENE,71,0.0,0.0,16,-99.99,,---,-99.99,VWS V14.01,2015-07-30 07:17:00,
2015-07-30 00:22:00,62.2,15.5,0.00,ENE,72,0.0,0.0,16,-99.99,,---,-99.99,VWS V14.01,2015-07-30 07:22:00,
2015-07-30 00:32:00,62.2,15.5,0.00,ENE,72,0.0,0.0,16,-99.99,,---,-99.99,VWS V14.01,2015-07-30 07:32:00,
2015-07-30 00:37:00,62.2,15.5,0.00,ENE,72,0.0,0.0,16,-99.99,,---,-99.99,VWS V14.01,2015-07-30 07:37:00,
2015-07-30 00:42:00,62.1,15.4,0.00,ENE,71,0.0,0.0,16,-99.99,,---,-99.99,VWS V14.01,2015-07-30 07:42:00,
2015-07-30 00:47:00,62.1,15.4,0.00,ENE,72,0.0,0.0,16,-99.99,,---,-99.99,VWS V14.01,2015-07-30 07:47:00,
2015-07-30 00:52:00,62.2,15.5,0.00,ENE,71,0.0,0.0,16,-99.99,,---,-99.99,VWS V14.01,2015-07-30 07:52:00,
2015-07-30 00:57:00,62.2,15.5,0.00,ENE,72,3.6,3.6,16,-99.99,,---,-99.99,VWS V14.01,2015-07-30 07:57:00,
2015-07-30 01:02:00,62.2,15.5,0.00,ENE,72,3.1,3.1,16,-99.99,,---,-99.99,VWS V14.01,2015-07-30 08:02:00,
2015-07-30 01:07:00,62.2,15.5,0.00,ENE,72,3.1,3.1,16,-99.99,,---,-99.99,VWS V14.01,2015-07-30 08:07:00,
2015-07-30 01:12:00,62.2,15.5,0.00,ENE,72,0.0,2.2,16,-99.99,,---,-99.99,VWS V14.01,2015-07-30 08:12:00,
2015-07-30 01:17:00,62.2,15.5,0.00,ENE,72,0.0,0.0,16,-99.99,,---,-99.99,VWS V14.01,2015-07-30 08:17:00,
2015-07-30 01:22:00,62.2,15.5,0.00,ENE,72,0.0,0.0,16,-99.99,,---,-99.99,VWS V14.01,2015-07-30 08:22:00,
2015-07-30 01:27:00,62.2,15.5,0.00,ENE,72,0.0,0.0,16,-99.99,,---,-99.99,VWS V14.01,2015-07-30 08:27:00,
2015-07-30 01:37:00,62.2,15.5,0.00,ENE,59,0.0,0.0,16,-99.99,,---,-99.99,VWS V14.01,2015-07-30 08:37:00,
2015-07-30 01:42:00,62.1,15.4,0.00,ENE,59,0.0,0.0,16,-99.99,,---,-99.99,VWS V14.01,2015-07-30 08:42:00,
2015-07-30 01:47:00,62.1,15.4,0.00,ENE,61,0.0,0.0,16,-99.99,,---,-99.99,VWS V14.01,2015-07-30 08:47:00,
2015-07-30 01:52:00,61.9,15.2,0.00,ENE,65,0.0,0.0,16,-99.99,,---,-99.99,VWS V14.01,2015-07-30 08:52:00,
2015-07-30 02:02:00,61.9,15.2,0.00,ENE,65,0.0,0.0,16,-99.99,,---,-99.99,VWS V14.01,2015-07-30 09:02:00,
2015-07-30 02:07:00,61.9,15.2,0.00,ENE,65,0.0,0.0,16,-99.99,,---,-99.99,VWS V14.01,2015-07-30 09:07:00,
2015-07-30 02:12:00,61.9,15.2,0.00,ENE,65,0.0,0.0,16,-99.99,,---,-99.99,VWS V14.01,2015-07-30 09:12:00,
2015-07-30 02:17:00,61.9,15.2,0.00,ENE,65,0.0,0.0,16,-99.99,,---,-99.99,VWS V14.01,2015-07-30 09:17:00,
2015-07-30 02:22:00,61.7,15.1,0.00,ENE,65,0.0,0.0,16,-99.99,,---,-99.99,VWS V14.01,2015-07-30 09:22:00,
2015-07-30 02:27:00,61.7,15.1,0.00,East,92,0.0,0.0,16,-99.99,,---,-99.99,VWS V14.01,2015-07-30 09:27:00,
2015-07-30 02:32:00,61.3,14.8,0.00,East,95,0.0,0.0,16,-99.99,,---,-99.99,VWS V14.01,2015-07-30 09:32:00,
2015-07-30 02:37:00,61.3,14.8,0.00,East,95,0.0,0.0,16,-99.99,,---,-99.99,VWS V14.01,2015-07-30 09:37:00,
2015-07-30 02:42:00,61.2,14.6,0.00,East,95,0.0,0.0,16,-99.99,,---,-99.99,VWS V14.01,2015-07-30 09:42:00,
2015-07-30 02:47:00,61.2,14.6,0.00,East,95,0.0,0.0,16,-99.99,,---,-99.99,VWS V14.01,2015-07-30 09:47:00,
2015-07-30 02:52:00,61.0,14.5,0.00,East,95,0.0,0.0,16,-99.99,,---,-99.99,VWS V14.01,2015-07-30 09:52:00,
2015-07-30 02:57:00,60.8,14.4,0.00,East,95,0.0,0.0,16,-99.99,,---,-99.99,VWS V14.01,2015-07-30 09:57:00,
2015-07-30 03:02:00,60.8,14.4,0.00,East,95,0.0,0.0,16,-99.99,,---,-99.99,VWS V14.01,2015-07-30 10:02:00,
2015-07-30 03:07:00,60.8,14.4,0.00,East,95,0.0,0.0,16,-99.99,,---,-99.99,VWS V14.01,2015-07-30 10:07:00,
2015-07-30 03:12:00,60.8,14.4,0.00,ESE,104,0.0,0.0,16,-99.99,,---,-99.99,VWS V14.01,2015-07-30 10:12:00,
2015-07-30 03:17:00,60.6,15.6,0.00,ESE,104,0.0,0.0,17,-99.99,,---,-99.99,VWS V14.01,2015-07-30 10:17:00,
2015-07-30 03:22:00,60.6,15.6,0.00,East,100,0.0,0.0,17,-99.99,,---,-99.99,VWS V14.01,2015-07-30 10:22:00,
2015-07-30 03:27:00,60.4,15.4,0.00,East,100,0.0,0.0,17,-99.99,,---,-99.99,VWS V14.01,2015-07-30 10:27:00,
2015-07-30 03:32:00,60.4,15.4,0.00,East,101,0.0,0.0,17,-99.99,,---,-99.99,VWS V14.01,2015-07-30 10:32:00,
2015-07-30 03:37:00,60.4,15.4,0.00,East,101,0.0,0.0,17,-99.99,,---,-99.99,VWS V14.01,2015-07-30 10:37:00,
2015-07-30 03:42:00,60.4,15.4,0.00,East,101,0.0,0.0,17,-99.99,,---,-99.99,VWS V14.01,2015-07-30 10:42:00,
2015-07-30 03:47:00,60.4,15.4,0.00,East,101,0.0,0.0,17,-99.99,,---,-99.99,VWS V14.01,2015-07-30 10:47:00,
2015-07-30 03:52:00,60.6,15.6,0.00,NE,49,0.0,0.0,17,-99.99,,---,-99.99,VWS V14.01,2015-07-30 10:52:00,
2015-07-30 03:57:00,61.2,14.6,0.00,NE,50,0.0,0.0,16,-99.99,,---,-99.99,VWS V14.01,2015-07-30 10:57:00,
2015-07-30 04:02:00,61.2,14.6,0.00,NE,50,0.0,0.0,16,-99.99,,---,-99.99,VWS V14.01,2015-07-30 11:02:00,
2015-07-30 04:07:00,61.2,14.6,0.00,NNE,24,0.0,0.0,16,-99.99,,---,-99.99,VWS V14.01,2015-07-30 11:07:00,
2015-07-30 04:12:00,61.2,14.6,0.00,North,10,0.0,0.0,16,-99.99,,---,-99.99,VWS V14.01,2015-07-30 11:12:00,
2015-07-30 04:17:00,61.2,14.6,0.00,North,0,0.0,0.0,16,-99.99,,---,-99.99,VWS V14.01,2015-07-30 11:17:00,
2015-07-30 04:22:00,61.2,14.6,0.00,North,357,0.0,0.0,16,-99.99,,---,-99.99,VWS V14.01,2015-07-30 11:22:00,
2015-07-30 04:28:00,61.0,14.5,0.00,North,6,0.0,0.0,16,-99.99,,---,-99.99,VWS V14.01,2015-07-30 11:28:00,
2015-07-30 04:33:00,61.0,14.5,0.00,North,1,0.0,0.0,16,-99.99,,---,-99.99,VWS V14.01,2015-07-30 11:33:00,
2015-07-30 04:43:00,60.6,15.6,0.00,NNE,12,0.0,0.0,17,-99.99,,---,-99.99,VWS V14.01,2015-07-30 11:43:00,
2015-07-30 04:48:00,60.6,15.6,0.00,North,0,0.0,2.2,17,-99.99,,---,-99.99,VWS V14.01,2015-07-30 11:48:00,
2015-07-30 04:53:00,60.4,15.4,0.00,North,7,0.0,0.0,17,-99.99,,---,-99.99,VWS V14.01,2015-07-30 11:53:00,
2015-07-30 04:58:00,60.4,15.4,0.00,North,2,0.0,0.0,17,-99.99,,---,-99.99,VWS V14.01,2015-07-30 11:58:00,
2015-07-30 05:03:00,60.4,15.4,0.00,North,11,0.0,0.0,17,-99.99,,---,-99.99,VWS V14.01,2015-07-30 12:03:00,
2015-07-30 05:08:00,60.3,15.3,0.00,NNE,22,0.0,0.0,17,-99.99,,---,-99.99,VWS V14.01,2015-07-30 12:08:00,
2015-07-30 05:13:00,60.3,15.3,0.00,NNE,22,0.0,0.0,17,-99.99,,---,-99.99,VWS V14.01,2015-07-30 12:13:00,
2015-07-30 05:18:00,60.3,15.3,0.00,NNE,16,0.0,0.0,17,-99.99,,---,-99.99,VWS V14.01,2015-07-30 12:18:00,
2015-07-30 05:23:00,60.3,15.3,0.00,NE,36,0.0,0.0,17,-99.99,,---,-99.99,VWS V14.01,2015-07-30 12:23:00,
2015-07-30 05:28:00,60.4,15.4,0.00,NE,36,0.0,0.0,17,-99.99,,---,-99.99,VWS V14.01,2015-07-30 12:28:00,
2015-07-30 05:33:00,60.8,14.4,0.00,NE,48,8.7,8.7,16,-99.99,,---,-99.99,VWS V14.01,2015-07-30 12:33:00,
2015-07-30 05:38:00,60.8,14.4,0.00,NE,48,8.7,8.7,16,-99.99,,---,-99.99,VWS V14.01,2015-07-30 12:38:00,
2015-07-30 05:43:00,60.4,15.4,0.00,North,357,0.0,0.0,17,-99.99,,---,-99.99,VWS V14.01,2015-07-30 12:43:00,
2015-07-30 05:48:00,60.6,15.6,0.00,North,4,4.0,4.0,17,-99.99,,---,-99.99,VWS V14.01,2015-07-30 12:48:00,
2015-07-30 05:53:00,60.4,15.4,0.00,North,4,4.0,4.0,17,-99.99,,---,-99.99,VWS V14.01,2015-07-30 12:53:00,
2015-07-30 05:58:00,60.4,15.4,0.00,North,11,3.1,3.1,17,-99.99,,---,-99.99,VWS V14.01,2015-07-30 12:58:00,
2015-07-30 06:03:00,60.3,15.3,0.00,North,2,4.0,4.0,17,-99.99,,---,-99.99,VWS V14.01,2015-07-30 13:03:00,
2015-07-30 06:08:00,60.1,15.1,0.00,North,9,0.0,0.0,17,-99.99,,---,-99.99,VWS V14.01,2015-07-30 13:08:00,
2015-07-30 06:18:00,60.3,15.3,0.00,North,11,0.0,0.0,17,-99.99,,---,-99.99,VWS V14.01,2015-07-30 13:18:00,
2015-07-30 06:23:00,60.3,15.3,0.00,NNE,14,8.1,8.1,17,-99.99,,---,-99.99,VWS V14.01,2015-07-30 13:23:00,
2015-07-30 06:28:00,60.4,15.4,0.00,NNE,14,4.9,4.9,17,-99.99,,---,-99.99,VWS V14.01,2015-07-30 13:28:00,
2015-07-30 06:33:00,61.2,14.6,0.00,NNE,21,4.0,4.0,16,-99.99,,---,-99.99,VWS V14.01,2015-07-30 13:33:00,
2015-07-30 06:38:00,61.2,14.6,0.00,NE,39,8.3,8.3,16,-99.99,,---,-99.99,VWS V14.01,2015-07-30 13:38:00,
2015-07-30 06:43:00,61.2,14.6,0.00,NE,39,8.3,8.3,16,-99.99,,---,-99.99,VWS V14.01,2015-07-30 13:43:00,
2015-07-30 06:48:00,61.2,14.6,0.00,NE,51,10.1,10.1,16,-99.99,,---,-99.99,VWS V14.01,2015-07-30 13:48:00,
2015-07-30 06:53:00,61.2,14.6,0.00,NE,36,5.4,5.4,16,-99.99,,---,-99.99,VWS V14.01,2015-07-30 13:53:00,
2015-07-30 06:58:00,61.2,14.6,0.00,NE,36,5.4,5.4,16,-99.99,,---,-99.99,VWS V14.01,2015-07-30 13:58:00,
2015-07-30 07:03:00,61.2,14.6,0.00,NE,52,8.7,8.7,16,-99.99,,---,-99.99,VWS V14.01,2015-07-30 14:03:00,
2015-07-30 07:08:00,61.2,14.6,0.00,NE,41,7.2,7.2,16,-99.99,,---,-99.99,VWS V14.01,2015-07-30 14:08:00,
2015-07-30 07:13:00,61.2,14.6,0.00,NE,43,5.8,5.8,16,-99.99,,---,-99.99,VWS V14.01,2015-07-30 14:13:00,
2015-07-30 07:18:00,61.2,14.6,0.00,NE,43,5.8,5.8,16,-99.99,,---,-99.99,VWS V14.01,2015-07-30 14:18:00,
2015-07-30 07:23:00,61.2,14.6,0.00,NNE,29,5.8,5.8,16,-99.99,,---,-99.99,VWS V14.01,2015-07-30 14:23:00,
2015-07-30 07:28:00,65.8,16.9,0.00,ENE,61,8.7,8.7,15,-99.99,,---,-99.99,VWS V14.01,2015-07-30 14:28:00,
2015-07-30 07:33:00,65.8,16.9,0.00,ENE,61,8.7,8.7,15,-99.99,,---,-99.99,VWS V14.01,2015-07-30 14:33:00,
2015-07-30 07:38:00,65.8,16.9,0.00,NNE,33,8.3,8.3,15,-99.99,,---,-99.99,VWS V14.01,2015-07-30 14:38:00,
2015-07-30 07:43:00,66.6,17.5,0.00,NE,49,5.8,5.8,15,-99.99,,---,-99.99,VWS V14.01,2015-07-30 14:43:00,
2015-07-30 07:53:00,67.3,18.1,0.00,ENE,76,8.3,8.3,15,-99.99,,---,-99.99,VWS V14.01,2015-07-30 14:53:00,
2015-07-30 07:58:00,67.3,18.1,0.00,ENE,60,12.3,12.3,15,-99.99,,---,-99.99,VWS V14.01,2015-07-30 14:58:00,
2015-07-30 08:03:00,67.5,18.2,0.00,ENE,60,12.3,12.3,15,-99.99,,---,-99.99,VWS V14.01,2015-07-30 15:03:00,
2015-07-30 08:08:00,67.5,18.2,0.00,ENE,76,10.1,10.1,15,-99.99,,---,-99.99,VWS V14.01,2015-07-30 15:08:00,
2015-07-30 08:13:00,67.5,18.2,0.00,ENE,76,10.1,10.1,15,-99.99,,---,-99.99,VWS V14.01,2015-07-30 15:13:00,
2015-07-30 08:18:00,67.5,18.2,0.00,ENE,76,10.1,10.1,15,-99.99,,---,-99.99,VWS V14.01,2015-07-30 15:18:00,
2015-07-30 08:23:00,67.5,18.2,0.00,ENE,76,10.1,10.1,15,-99.99,,---,-99.99,VWS V14.01,2015-07-30 15:23:00,
2015-07-30 08:28:00,67.5,18.2,0.00,ENE,76,10.1,10.1,15,-99.99,,---,-99.99,VWS V14.01,2015-07-30 15:28:00,
2015-07-30 08:33:00,67.5,18.2,0.00,NE,56,9.2,9.2,15,-99.99,,---,-99.99,VWS V14.01,2015-07-30 15:33:00,
2015-07-30 08:38:00,67.3,18.1,0.00,ENE,58,8.7,8.7,15,-99.99,,---,-99.99,VWS V14.01,2015-07-30 15:38:00,
2015-07-30 08:43:00,67.3,18.1,0.00,ENE,58,8.7,8.7,15,-99.99,,---,-99.99,VWS V14.01,2015-07-30 15:43:00,
2015-07-30 08:48:00,67.3,18.1,0.00,ENE,58,8.7,8.7,15,-99.99,,---,-99.99,VWS V14.01,2015-07-30 15:48:00,
2015-07-30 08:53:00,67.1,17.9,0.00,ENE,58,8.7,8.7,15,-99.99,,---,-99.99,VWS V14.01,2015-07-30 15:53:00,
2015-07-30 08:58:00,67.1,17.9,0.00,ENE,63,11.0,11.0,15,-99.99,,---,-99.99,VWS V14.01,2015-07-30 15:58:00,
2015-07-30 09:03:00,66.7,17.6,0.00,ENE,63,11.0,11.0,15,-99.99,,---,-99.99,VWS V14.01,2015-07-30 16:03:00,
2015-07-30 09:08:00,66.7,17.6,0.00,ENE,61,10.5,10.5,15,-99.99,,---,-99.99,VWS V14.01,2015-07-30 16:08:00,
2015-07-30 09:13:00,66.7,17.6,0.00,ENE,63,8.1,8.1,15,-99.99,,---,-99.99,VWS V14.01,2015-07-30 16:13:00,
2015-07-30 09:18:00,66.7,17.6,0.00,ENE,67,10.5,10.5,15,-99.99,,---,-99.99,VWS V14.01,2015-07-30 16:18:00,
2015-07-30 09:23:00,66.7,17.6,0.00,ENE,67,10.5,10.5,15,-99.99,,---,-99.99,VWS V14.01,2015-07-30 16:23:00,
2015-07-30 09:28:00,66.7,17.6,0.00,ENE,67,10.5,10.5,15,-99.99,,---,-99.99,VWS V14.01,2015-07-30 16:28:00,
2015-07-30 09:33:00,66.7,17.6,0.00,NE,45,4.9,4.9,15,-99.99,,---,-99.99,VWS V14.01,2015-07-30 16:33:00,
2015-07-30 09:38:00,66.7,17.6,0.00,NE,45,4.9,4.9,15,-99.99,,---,-99.99,VWS V14.01,2015-07-30 16:38:00,
2015-07-30 09:43:00,63.9,16.8,0.00,NE,46,13.6,13.6,16,-99.99,,---,-99.99,VWS V14.01,2015-07-30 16:43:00,
2015-07-30 09:48:00,63.9,16.8,0.00,ENE,60,11.4,11.4,16,-99.99,,---,-99.99,VWS V14.01,2015-07-30 16:48:00,
2015-07-30 09:53:00,65.1,16.4,0.00,ENE,58,12.8,12.8,15,-99.99,,---,-99.99,VWS V14.01,2015-07-30 16:53:00,
2015-07-30 09:58:00,65.1,16.4,0.00,ENE,58,12.8,12.8,15,-99.99,,---,-99.99,VWS V14.01,2015-07-30 16:58:00,
2015-07-30 10:03:00,65.1,16.4,0.00,ENE,58,12.8,12.8,15,-99.99,,---,-99.99,VWS V14.01,2015-07-30 17:03:00,
2015-07-30 10:08:00,65.1,16.4,0.00,ENE,58,12.8,12.8,15,-99.99,,---,-99.99,VWS V14.01,2015-07-30 17:08:00,
2015-07-30 10:13:00,65.1,16.4,0.00,ENE,58,12.8,12.8,15,-99.99,,---,-99.99,VWS V14.01,2015-07-30 17:13:00,
2015-07-30 10:23:00,65.1,16.4,0.00,ENE,58,12.8,12.8,15,-99.99,,---,-99.99,VWS V14.01,2015-07-30 17:23:00,
2015-07-30 10:33:00,65.1,16.4,0.00,ENE,68,12.8,12.8,15,-99.99,,---,-99.99,VWS V14.01,2015-07-30 17:33:00,
2015-07-30 10:38:00,67.1,17.9,0.00,ENE,74,10.5,10.5,15,-99.99,,---,-99.99,VWS V14.01,2015-07-30 17:38:00,
2015-07-30 10:43:00,68.0,18.7,0.00,ENE,68,10.5,10.5,15,-99.99,,---,-99.99,VWS V14.01,2015-07-30 17:43:00,
2015-07-30 10:53:00,70.5,19.1,0.00,East,86,10.1,10.1,14,-99.99,,---,-99.99,VWS V14.01,2015-07-30 17:53:00,
2015-07-30 10:59:00,70.5,19.1,0.00,ENE,76,6.3,6.3,14,-99.99,,---,-99.99,VWS V14.01,2015-07-30 17:59:00,
2015-07-30 11:09:00,71.6,19.9,0.00,ENE,73,10.5,10.5,14,-99.99,,---,-99.99,VWS V14.01,2015-07-30 18:09:00,
2015-07-30 11:14:00,71.6,19.9,0.00,ENE,68,7.6,7.6,14,-99.99,,---,-99.99,VWS V14.01,2015-07-30 18:14:00,
2015-07-30 11:19:00,70.7,19.2,0.00,ENE,77,11.4,11.4,14,-99.99,,---,-99.99,VWS V14.01,2015-07-30 18:19:00,
2015-07-30 11:24:00,70.7,19.2,0.00,ENE,77,11.4,11.4,14,-99.99,,---,-99.99,VWS V14.01,2015-07-30 18:24:00,
2015-07-30 11:29:00,70.9,19.4,0.00,ENE,77,11.4,11.4,14,-99.99,,---,-99.99,VWS V14.01,2015-07-30 18:29:00,
2015-07-30 11:34:00,70.9,19.4,0.00,NE,53,11.0,11.0,14,-99.99,,---,-99.99,VWS V14.01,2015-07-30 18:34:00,
2015-07-30 11:39:00,70.3,18.9,0.00,NE,34,5.4,11.0,14,-99.99,,---,-99.99,VWS V14.01,2015-07-30 18:39:00,
2015-07-30 11:44:00,71.2,19.6,0.00,NE,34,5.4,5.4,14,-99.99,,---,-99.99,VWS V14.01,2015-07-30 18:44:00,
2015-07-30 11:49:00,71.2,19.6,0.00,ENE,59,11.0,11.0,14,-99.99,,---,-99.99,VWS V14.01,2015-07-30 18:49:00,
2015-07-30 11:54:00,70.9,19.4,0.00,ESE,104,14.5,14.5,14,-99.99,,---,-99.99,VWS V14.01,2015-07-30 18:54:00,
2015-07-30 11:59:00,70.9,19.4,0.00,ESE,104,14.5,14.5,14,-99.99,,---,-99.99,VWS V14.01,2015-07-30 18:59:00,
2015-07-30 12:04:00,71.2,19.6,0.00,ESE,104,14.5,14.5,14,-99.99,,---,-99.99,VWS V14.01,2015-07-30 19:04:00,
2015-07-30 12:09:00,71.2,19.6,0.00,ESE,104,14.5,14.5,14,-99.99,,---,-99.99,VWS V14.01,2015-07-30 19:09:00,
2015-07-30 12:14:00,71.8,20.1,0.00,ESE,104,14.5,14.5,14,-99.99,,---,-99.99,VWS V14.01,2015-07-30 19:14:00,
2015-07-30 12:19:00,71.8,20.1,0.00,ESE,104,14.5,14.5,14,-99.99,,---,-99.99,VWS V14.01,2015-07-30 19:19:00,
2015-07-30 12:24:00,71.8,20.1,0.00,ESE,104,14.5,14.5,14,-99.99,,---,-99.99,VWS V14.01,2015-07-30 19:24:00,
2015-07-30 12:29:00,72.1,20.4,0.00,ENE,62,14.1,14.1,14,-99.99,,---,-99.99,VWS V14.01,2015-07-30 19:29:00,
2015-07-30 12:34:00,72.3,20.5,0.00,ENE,62,14.1,14.1,14,-99.99,,---,-99.99,VWS V14.01,2015-07-30 19:34:00,
2015-07-30 12:44:00,74.5,25.4,0.00,East,87,8.3,8.3,16,-99.99,,---,-99.99,VWS V14.01,2015-07-30 19:44:00,
2015-07-30 12:49:00,74.5,25.4,0.00,East,87,8.3,8.3,16,-99.99,,---,-99.99,VWS V14.01,2015-07-30 19:49:00,
2015-07-30 12:54:00,74.8,25.7,0.00,East,87,8.3,8.3,16,-99.99,,---,-99.99,VWS V14.01,2015-07-30 19:54:00,
2015-07-30 12:59:00,74.8,25.7,0.00,NE,47,8.3,8.3,16,-99.99,,---,-99.99,VWS V14.01,2015-07-30 19:59:00,
2015-07-30 13:04:00,76.5,25.4,0.00,NE,46,8.1,8.1,15,-99.99,,---,-99.99,VWS V14.01,2015-07-30 20:04:00,
2015-07-30 13:09:00,76.6,25.6,0.00,NE,38,7.6,7.6,15,-99.99,,---,-99.99,VWS V14.01,2015-07-30 20:09:00,
2015-07-30 13:14:00,75.7,24.9,0.00,ENE,69,10.5,10.5,15,-99.99,,---,-99.99,VWS V14.01,2015-07-30 20:14:00,
2015-07-30 13:19:00,75.2,24.4,0.00,North,1,0.0,0.0,15,-99.99,,---,-99.99,VWS V14.01,2015-07-30 20:19:00,
2015-07-30 13:24:00,75.2,24.4,0.00,ENE,73,8.1,8.1,15,-99.99,,---,-99.99,VWS V14.01,2015-07-30 20:24:00,
2015-07-30 13:34:00,74.5,20.5,0.00,ENE,58,11.9,11.9,13,-99.99,,---,-99.99,VWS V14.01,2015-07-30 20:34:00,
2015-07-30 13:39:00,71.8,20.1,0.00,NE,43,10.1,10.1,14,-99.99,,---,-99.99,VWS V14.01,2015-07-30 20:39:00,
2015-07-30 13:44:00,71.8,20.1,0.00,NE,43,10.1,10.1,14,-99.99,,---,-99.99,VWS V14.01,2015-07-30 20:44:00,
2015-07-30 13:49:00,70.7,19.2,0.00,NE,43,10.1,10.1,14,-99.99,,---,-99.99,VWS V14.01,2015-07-30 20:49:00,
2015-07-30 13:54:00,70.7,19.2,0.00,NE,43,10.1,10.1,14,-99.99,,---,-99.99,VWS V14.01,2015-07-30 20:54:00,
2015-07-30 13:59:00,70.7,19.2,0.00,East,84,6.3,6.3,14,-99.99,,---,-99.99,VWS V14.01,2015-07-30 20:59:00,
2015-07-30 14:09:00,70.7,19.2,0.00,East,95,6.3,6.3,14,-99.99,,---,-99.99,VWS V14.01,2015-07-30 21:09:00,
2015-07-30 14:14:00,71.6,19.9,0.00,ESE,109,8.1,8.1,14,-99.99,,---,-99.99,VWS V14.01,2015-07-30 21:14:00,
2015-07-30 14:19:00,72.5,20.6,0.00,East,86,8.3,8.3,14,-99.99,,---,-99.99,VWS V14.01,2015-07-30 21:19:00,
2015-07-30 14:24:00,72.7,20.8,0.00,East,86,8.3,8.3,14,-99.99,,---,-99.99,VWS V14.01,2015-07-30 21:24:00,
2015-07-30 14:29:00,72.7,20.8,0.00,ENE,71,11.9,11.9,14,-99.99,,---,-99.99,VWS V14.01,2015-07-30 21:29:00,
2015-07-30 14:34:00,72.7,20.8,0.00,East,89,0.0,0.0,14,-99.99,,---,-99.99,VWS V14.01,2015-07-30 21:34:00,
2015-07-30 14:39:00,72.7,20.8,0.00,East,89,0.0,0.0,14,-99.99,,---,-99.99,VWS V14.01,2015-07-30 21:39:00,